Observer details:
046 Klet.  Observers M. Tichy, Z. Moravec.  0.57-m f/5.2 reflector + CCD.
106 Crni Vrh.  Observer H. Mikuz.  0.36-m f/6.7 Schmidt-Cassegrain + CCD.
151 Eschenberg Observatory, Winterthur.  Observer M. Griesser.  0.25-m f/8.0
    reflector + CCD.
402 Dynic Astronomical Observatory.  Observer A. Sugie.  0.60-m f/3.7 reflector
    + CCD.
422 Loomberah.  Observer G. J. Garradd.  0.45-m f/5.4 reflector + CCD.
557 Ondrejov.  Observers P. Pravec, P. Kusnirak.  0.65-m f/3.6 reflector + CCD.
587 Sormano.  Observers G. Ventre, M. Cavagna.  0.5-m reflector + CCD.
596 Colleverde di Guidonia.  Observer V. S. Casulli.  0.40-m f/2.95 reflector
    + CCD.
611 Starkenburg.  Observers M. Busch, R. Kresken, A. Seib, R. Stoss.  0.45-m
    f/4.4 reflector + CCD.
651 Grasslands Observatory, Tucson.  Observer J. E. McGaha.  0.62-m f/5.1
    reflector + CCD.
670 Camarillo.  Observer J. E. Rogers.  0.30-m f/6.7 Helin Telescope + CCD.
681 Calgary.  Observer G. W. Billings.  0.36-m f/7 Schmidt-Cassegrain + CCD.
703 Catalina Sky Survey.  Observer S. M. Larson.  0.41-m f/3 Schmidt + CCD.
704 Lincoln Laboratory ETS, New Mexico.  Observers M. Blythe, F. Shelly,
    M. Bezpalko, M. Elowitz, R. Huber.  Measurers J. Stuart, H. Viggh,
    R. Sayer, J. B. Evans.  1.0-m f/2.15 reflector + CCD.
739 Sunflower Observatory, Olathe.  Observer L. Robinson.  0.25-m
    Schmidt-Cassegrain + CCD.
750 Hobbs Observatory, Fall Creek.  Observer R. Elliott.  0.3-m f/3.3 reflector
    + CCD.
858 Tebbutt Observatory, Edgewood.  Observer F. B. Zoltowski.  0.3-m f/3.3
    Schmidt-Cassegrain + CCD.
860 Valinhos.  Observer P. R. Holvorcem.  0.36-m f/3.6 Schmidt-Cassegrain
    + CCD.
903 Fukuchiyama.  Observer M. Yoshimi.  0.25-m f/6.3 Schmidt-Cassegrain + CCD.

Orbital elements:
2000 CM33                                                            PHA 0.042A
Epoch 2000 Jan. 17.0 TT = JDT 2451560.5                 Williams
M 320.89165              (2000.0)            P               Q
n   0.64771284     Peri.   50.00829     -0.98724703     +0.06194572
a   1.3229630      Node   132.99540     -0.09944589     -0.95931310
e   0.2722591      Incl.   11.56635     +0.12431337     -0.27546525
P   1.52           H   21.4           G   0.15
From 109 observations 2000 Feb. 2-6.

Ephemeris:
2000 CM33                a,e,i = 1.32, 0.27, 12                  q = 0.9628
Date    TT    R. A. (2000) Decl.     Delta      r     Elong.  Phase     V
2000 01 27    09 28.25   +00 01.8    0.082    1.061   157.2    21.1    17.1
2000 02 01    10 06.08   +09 53.6    0.062    1.044   161.3    17.6    16.4
2000 02 06    11 16.40   +26 20.0    0.049    1.028   150.1    28.6    16.1
2000 02 11    13 22.24   +43 23.7    0.047    1.014   123.9    53.9    16.8
2000 02 16    15 41.93   +48 13.7    0.058    1.001   101.6    75.1    17.9
2000 02 21    17 08.18   +45 39.8    0.076    0.990    88.6    87.0    18.8
2000 02 26    17 54.79   +42 18.9    0.096    0.980    81.5    92.9    19.6
2000 03 02    18 22.70   +39 32.0    0.116    0.973    77.7    95.6    20.1
2000 03 07    18 41.56   +37 18.6    0.137    0.967    75.6    96.5    20.5

2000 03 17    19 07.08   +33 56.1    0.177    0.963    74.5    95.3    21.0
2000 03 27    19 25.93   +31 23.7    0.214    0.967    75.5    92.1    21.2
2000 04 06    19 41.88   +29 23.2    0.246    0.979    77.9    87.9    21.4
2000 04 16    19 55.73   +27 42.1    0.271    0.999    81.3    83.1    21.5
2000 04 26    20 07.52   +26 11.8    0.290    1.026    85.7    77.9    21.5
2000 05 06    20 16.53   +24 43.6    0.301    1.058    91.1    72.4    21.4
2000 05 16    20 21.84   +23 03.3    0.305    1.095    97.8    66.2    21.4
2000 05 26    20 22.61   +20 54.5    0.303    1.134   105.9    59.2    21.2
2000 06 05    20 17.85   +17 56.6    0.299    1.175   115.7    51.1    21.0
2000 06 15    20 07.27   +13 46.2    0.295    1.217   127.4    41.5    20.8
2000 06 25    19 51.79   +08 13.7    0.296    1.260   140.7    30.7    20.6
2000 07 05    19 33.65   +01 36.1    0.309    1.301   154.1    20.0    20.4
2000 07 15    19 16.40   -05 17.1    0.337    1.342   162.9    12.9    20.4
2000 07 25    19 03.11   -11 29.8    0.382    1.381   160.1    14.5    20.8
2000 08 04    18 55.43   -16 31.3    0.444    1.419   150.8    20.4    21.4
2000 08 14    18 53.73   -20 18.4    0.520    1.455   141.0    26.0    22.0

Gareth V. Williams           (C) Copyright 2000 MPC           M.P.E.C. 2000-C27

Read MPEC 2000-C26 Read MPEC 2000-C28


Our Web policy. Index to the CBAT/MPC/ICQ pages.

